Tracking 28790 objects as of 19-Apr-2024
HD Live streaming from Space Station
objects crossing your sky now

COSMOS 2481

Track COSMOS 2481 now!
10-day predictions
COSMOS 2481 is classified as:


NORAD ID: 38733
Int'l Code: 2012-041A
Perigee: 1,489.2 km
Apogee: 1,517.9 km
Inclination: 82.5 °
Period: 115.9 minutes
Semi major axis: 7874 km
RCS: 0.8414 m2 (medium)
Launch date: July 28, 2012
Source: Commonwealth of Independent States (former USSR) (CIS)
Launch site: PLESETSK MISSILE AND SPACE COMPLEX (PKMTR)

COSMOS 2841 is a classified Russian military satellite. It will join a Russian network of about 70 military reconnaissance satellites.
Your satellite tracking list
Your tracking list is empty




NASA's NSSDC Master Catalog

Two Line Element Set (TLE):
1 38733U 12041A   24109.56786999  .00000016  00000-0  43436-4 0  9998
2 38733  82.4780 207.4875 0018258 359.5901   0.5161 12.42409366531698
Source of the keplerian elements: AFSPC